Location: Plymouth
(43.7490°N, 87.9770°W)
Time: 23:55:27
(UTC-05:00)

Daily predictions for brighter satellites

Satellite Brightness Start Highest point End
(mag) Time Altitude Azimuth Time Altitude Azimuth Time Altitude Azimuth
YAOGAN 11 4.2 20:48:55 10° SSE 20:53:25 87° ENE 20:57:59 10° NNW
Meteor 2-10 Rocket 3.9 20:51:10 10° N 20:57:00 66° ENE 21:02:41 10° SSE
Cosmos 2181 Rocket 4.4 20:51:21 10° NNW 20:57:47 71° W 21:04:07 10° S
NOSS 2-2 (C) 4.2 20:54:25 10° S 20:58:07 33° ESE 21:02:18 10° NE
Cosmos 1624 Rocket 4.4 20:53:17 10° S 20:58:12 43° ESE 21:03:12 10° NNE
Cosmos 1892 2.9 20:56:10 10° S 20:59:53 52° E 21:03:39 10° NNE
H-2A R/B 4.2 20:56:33 10° SSW 21:00:01 37° W 21:03:30 10° NNW
Envisat 3.2 20:55:33 10° SSE 21:00:30 56° ENE 21:05:28 10° N
H-2A R/B 4.2 20:58:20 10° E 21:00:41 13° ENE 21:03:01 10° NNE
USA 186 3.6 20:58:45 10° SSW 21:01:29 31° W 21:04:23 10° NNW
Cosmos 1733 Rocket 3.3 20:59:57 10° SSE 21:04:12 49° E 21:08:27 10° NNE
CZ-4 SHROUD 4.4 21:08:16 10° SE 21:10:54 26° ENE 21:13:34 10° NNE
ERBS 2.4 21:09:58 10° NW 21:13:28 72° NE 21:16:36 12° SE
SPOT 1/Viking Rocket 4.5 21:10:34 10° SE 21:15:09 33° ENE 21:19:46 10° N
Cosmos 407 Rocket 4.0 21:12:01 10° N 21:17:06 47° ENE 21:21:52 12° SE
NOSS 2-2 (E) 3.6 21:13:09 10° SSW 21:17:14 57° ESE 21:22:01 10° NE
Cosmos 1238 Rocket 3.9 21:17:49 10° NNE 21:20:09 19° ENE 21:22:00 13° ESE
Cosmos 1452 Rocket 4.5 21:17:44 10° SSE 21:22:07 27° E 21:26:32 10° NE
Nimbus 7 Rocket 4.4 21:16:56 10° NNE 21:22:49 64° ESE 21:28:43 10° S
Cosmos 2074 Rocket 4.1 21:16:52 10° S 21:23:10 89° E 21:29:28 10° N
SPOT 5 3.2 21:19:45 10° SSE 21:24:55 69° ENE 21:30:15 10° N
COSMOS 2406 3.3 21:19:32 10° NNW 21:25:21 90° WSW 21:30:59 10° SSE
EO 1 Delta rocket 4.5 21:20:05 10° NNE 21:26:51 67° E 21:32:09 10° S
Cosmos 1190 Rocket 4.0 21:22:35 10° NNW 21:27:47 71° ENE 21:32:30 13° SSE
Cosmos 909 Rocket 4.3 21:22:44 10° SSW 21:29:14 81° ESE 21:37:09 10° NE
H-2A R/B 2.2 21:24:55 10° S 21:29:16 77° WSW 21:33:33 10° NNW
ERS-1 Rocket 3.7 21:24:29 10° S 21:29:24 54° W 21:34:22 10° NNW
BREEZE-M TANK 4.4 21:05:05 10° WSW 21:30:04 87° NNW 21:34:43 10° ENE
Cosmos 1356 Rocket 3.8 21:26:26 10° SSW 21:30:37 69° W 21:34:54 10° N
Meteor 1-10 Rocket 4.3 21:24:45 10° N 21:30:40 88° WSW 21:36:25 10° S
Cosmos 1610 Rocket 4.5 21:25:25 10° S 21:31:31 72° E 21:37:43 10° NNE
PSLV R/B 3.2 21:29:27 15° SSE 21:31:40 55° ENE 21:34:35 10° N
MetOp-B 4.2 21:28:34 11° SSE 21:33:43 68° ENE 21:39:03 10° N
Nadezhda 3 Rocket 4.2 21:29:45 10° N 21:36:03 60° E 21:41:46 13° SSE
Cosmos 1862 3.9 21:33:23 13° SSE 21:36:41 39° E 21:40:30 10° NNE
Terra 3.4 21:37:58 13° ESE 21:40:48 20° ENE 21:44:17 10° NNE
ATLAS 5 CENTAUR R/B 2.6 21:35:29 10° NW 21:41:27 70° WSW 21:46:55 15° SSE
ARGOS 3.5 21:38:33 15° SE 21:42:44 50° ENE 21:47:54 10° N
PSLV R/B 4.1 21:41:49 10° W 21:45:03 37° SSW 21:46:43 23° SE
Okean 2 Rocket 4.0 21:42:45 18° SE 21:45:10 30° E 21:49:01 10° NNE
Abrixas rocket 4.3 21:45:41 10° W 21:48:07 18° SW 21:49:51 13° S
Cosmos 2278 Rocket 2.9 21:43:31 11° SSE 21:48:19 34° ESE 21:53:22 10° NE
Sich 1 Rocket 3.6 21:43:56 10° S 21:48:31 85° E 21:53:08 10° N
OPS 6432 4.2 21:45:07 10° SW 21:48:31 89° NW 21:51:39 10° NE
USA 234 3.7 21:43:58 10° ENE 21:49:58 38° SE 21:55:56 10° SSW
Cosmos 1844 3.9 21:45:01 10° S 21:50:35 54° ESE 21:56:14 10° NNE
CZ-4B R/B 3.6 21:45:55 10° NNE 21:50:48 50° E 21:54:54 14° S
Cosmos 2341 Rocket 4.1 21:46:40 10° S 21:52:51 60° E 21:59:02 10° NNE
Cosmos 1833 Rocket 4.5 21:49:20 10° N 21:53:22 20° NE 21:57:19 10° E
CZ-4C R/B 4.4 21:54:26 21° ESE 21:56:08 30° ENE 21:59:39 10° N
Cosmos 1825 2.3 21:54:31 19° SSE 21:57:03 57° E 22:00:49 10° NNE
Cosmos 676 Rocket 4.0 21:52:17 10° NNW 21:57:31 78° ENE 22:01:02 21° SSE
Cosmos 1674 Rocket 4.3 21:53:13 10° NNW 21:57:34 51° W 22:01:52 10° S
UNK 4.5 21:53:06 10° NNE 21:59:25 79° ESE 22:05:27 10° SSW
Cosmos 2056 Rocket 4.0 21:55:30 10° SSW 22:00:37 60° WNW 22:05:42 10° NNE
Cosmos 1844 Rocket 2.7 21:56:06 10° SSW 22:01:46 88° ESE 22:07:27 10° NNE
Meteor 1-27 Rocket 3.7 21:56:31 10° NNW 22:02:09 81° W 22:06:42 16° S
Cosmos 1782 4.0 22:00:58 10° NNW 22:04:44 39° W 22:08:30 10° SSW
Cosmos 1184 Rocket 3.0 22:04:01 32° SSE 22:05:11 49° E 22:08:26 10° NNE
Cosmos 1954 Rocket 4.0 22:00:01 10° NNW 22:05:13 71° ENE 22:08:21 24° SSE
Cosmos 1174 3.1 22:02:25 10° NNW 22:05:47 73° ENE 22:06:47 38° SE
Cosmos 2082 Rocket 3.5 22:01:16 10° N 22:06:12 29° NE 22:09:37 16° ESE
Cosmos 1782 Rocket 3.5 22:07:23 20° S 22:10:22 68° E 22:14:50 10° NNE
COSMOS 2487 2.7 22:08:56 10° NNW 22:12:31 59° ENE 22:13:44 36° SE
SL-27 R/B 4.0 22:10:42 10° NW 22:13:59 31° WSW 22:16:20 16° SSW
NOSS 5 (C) 4.2 22:14:32 24° SSW 22:16:16 56° SE 22:19:19 10° NE
YAOGAN 6 3.5 22:14:37 18° SSW 22:16:50 42° W 22:20:12 10° NNW
Cosmos 1408 2.6 22:15:26 20° SSW 22:17:51 77° W 22:21:32 10° N
DNEPR-1 R/B 4.5 22:12:40 10° NNW 22:18:09 49° NE 22:20:38 26° ESE
CZ-4 R/B 3.7 22:13:55 10° NNE 22:18:37 69° ESE 22:21:34 22° S
IGS 5A 4.3 22:17:59 28° ESE 22:19:22 37° ENE 22:23:13 10° N
Cosmos 962 Rocket 4.5 22:14:40 10° S 22:20:46 86° W 22:27:02 10° N
SL-8 Rocket 4.1 22:17:09 22° SSE 22:21:14 59° E 22:27:22 10° NNE
SL-8 R/B 3.7 22:17:55 10° WSW 22:22:45 82° NNW 22:27:35 10° ENE
APEX 4.4 22:22:47 28° ESE 22:22:47 28° ESE 22:26:48 10° NE
CENTAUR R/B 4.2 22:16:57 10° NW 22:23:57 35° WSW 22:30:41 12° S
Meteor 2-13 Rocket 4.4 22:19:38 18° S 22:24:23 76° E 22:30:33 10° NNE
Cosmos 1975 Rocket 3.0 22:20:58 10° N 22:25:19 81° W 22:27:24 30° S
Cosmos 2154 Rocket 4.4 22:19:31 10° SSW 22:25:40 62° W 22:31:51 10° N
Cosmos 1606 4.1 22:23:09 10° NNW 22:26:47 36° W 22:29:28 16° SSW
SL-08 RB Rocket 3.8 22:24:57 27° S 22:27:24 76° WSW 22:32:03 10° NNW
CARTOSAT-1 3.8 22:27:44 36° SE 22:29:12 56° ENE 22:33:27 10° N
USA 229 DEB 4.5 22:24:17 10° NNW 22:31:04 45° NE 22:35:48 20° ESE
USA 229 4.5 22:24:23 10° NNW 22:31:10 45° NE 22:35:54 20° ESE
Okean 3 4.0 22:27:45 10° NNW 22:31:58 56° W 22:34:14 25° SSW
NOAA 11 4.5 22:28:50 22° S 22:32:25 64° WSW 22:37:54 10° NNW
Cosmos 1242 Rocket 2.5 22:32:55 10° NNW 22:36:35 81° W 22:37:28 49° S
USA 245 4.4 22:35:53 22° SW 22:37:04 29° W 22:40:12 10° NNW
Cosmos 1536 Rocket 4.1 22:33:42 10° N 22:38:00 44° ENE 22:39:02 37° ESE
H-2A R/B 2.1 22:36:42 33° SSE 22:39:16 82° ENE 22:44:39 10° NNW
Cosmos 1023 Rocket 4.4 22:38:33 10° NNW 22:43:40 80° WSW 22:45:42 37° S
Cosmos 1420 Rocket 3.9 22:46:17 25° SSW 22:49:26 85° ESE 22:54:41 10° NNE
Cosmos 2151 Rocket 3.6 22:49:00 48° SSE 22:50:05 66° E 22:54:36 10° NNE
Cosmos 864 Rocket 4.4 22:51:03 33° S 22:53:53 72° E 23:00:02 10° NNE
Meteor 1-25 Rocket 4.4 22:56:05 39° SSE 22:58:01 58° E 23:03:45 10° NNE
Cosmos 2366 rocket 3.9 22:56:09 31° S 22:59:20 83° E 23:05:41 10° N
BREEZE-M DEB (TANK) 3.6 22:59:10 10° WNW 23:01:14 29° N 23:05:07 10° ENE
Meteor 1-18 Rocket 4.3 22:56:07 10° N 23:02:01 78° E 23:04:09 42° SSE
Landsat 7 4.5 23:00:35 32° SSW 23:02:26 49° W 23:07:04 10° NNW
SAR-Lupe-2 3.4 23:02:28 82° E 23:02:29 82° ENE 23:06:05 10° NNW
Meteor 1-14 Rocket 4.3 23:00:06 28° SSW 23:03:13 79° W 23:08:52 10° N
Cosmos 2084 3.7 23:08:44 23° WSW 23:10:58 56° NW 23:14:45 10° NNE
ASTEX 1 3.4 23:06:36 10° N 23:11:32 67° E 23:12:25 55° SSE
Spot 4 3.9 23:13:28 49° SSW 23:14:42 71° WSW 23:19:34 10° NNW
Cosmos 614 Rocket 4.1 23:10:07 10° NNW 23:15:10 64° WSW 23:16:24 48° SSW
Cosmos 1140 Rocket 4.3 23:11:12 10° NW 23:16:00 41° WSW 23:17:37 32° SW
Okean 1-7 Rocket 4.0 23:13:07 10° N 23:17:30 46° ENE 23:17:45 46° E
Terra 2.4 23:16:52 38° SW 23:18:12 48° W 23:22:49 10° NNW
Cosmos 2218 Rocket 4.4 23:17:25 24° SSW 23:21:22 60° W 23:27:44 10° N
DMSP B5D2-2 4.4 23:16:25 10° N 23:21:35 63° WNW 23:24:01 31° SW
Okean 1 Rocket 3.3 23:24:31 54° E 23:24:31 54° E 23:28:50 10° NNE
BREEZE-M DEB (TANK) 3.8 23:19:30 10° WNW 23:26:16 31° SW 23:26:27 31° SW
Cosmos 1300 Rocket 3.5 23:29:21 72° E 23:29:23 72° E 23:33:50 10° NNE
AVUM R/B 4.3 23:28:26 10° NNW 23:31:17 44° NNE 23:31:17 44° NNE
Cosmos 1025 Rocket 4.1 23:28:07 10° N 23:32:03 33° ENE 23:32:03 33° ENE
Cosmos 2278 Rocket 3.5 23:27:02 10° SW 23:32:18 38° WNW 23:37:37 10° NNE
USA 234 3.5 23:26:44 10° NE 23:33:14 69° NW 23:39:42 10° WSW
Meteor 1-11 Rocket 4.1 23:33:06 44° ESE 23:33:53 47° E 23:39:26 10° NNE
Cosmos 1727 Rocket 4.4 23:31:55 10° NNW 23:37:54 54° W 23:40:11 35° SSW
Cosmos 1833 Rocket 2.6 23:32:19 10° NNW 23:37:56 77° WSW 23:39:00 59° S
Gbstr 26 Del rocket 4.1 23:34:05 10° NW 23:38:39 41° NNE 23:40:15 28° ENE
Cosmos 1812 3.2 23:36:30 10° NNW 23:40:03 54° WNW 23:40:03 54° WNW
Meteor 2-4 Rocket 4.4 23:36:52 10° N 23:41:55 39° ENE 23:42:48 36° E
Cosmos 1536 4.0 23:51:04 33° NE 23:51:04 33° NE 23:53:48 10° NNE
Cosmos 2082 Rocket 2.6 23:45:03 10° NW 23:50:31 49° WSW 23:51:28 44° SW
Cosmos 1400 Rocket 3.8 23:56:13 41° NE 23:56:13 41° NE 23:59:17 10° NNE
